Location: Sweet Grass
(48.9965°N, 111.9649°W)
Time: 06:30:22
(UTC+00:00)

DIWATA 2B (PO-101) - Pass Details

Date: 09 April 2023
Orbit: 581 x 594 km, 98.0° (Epoch: 03 June)

Event Time Altitude Azimuth Distance (km) Brightness Sun altitude
Exits shadow 10:49:15 19° 295° (WNW) 1,396 ? -18.6°
Drops below altitude 10° 10:51:11 10° 320° (NW) 1,912 ? -18.4°
Sets 10:53:44 0° 335° (NNW) 2,820 ? -18.0°
